Regional Weather Roundup
Issued by NWS Northern Indiana

Home | Current Version | Previous Version | Graphics & Text | Print | Product List | Glossary On
Versions: 1 2 3 4 5 6 7 8 9 10 11 12 13 14 15 16 17 18 19 20 21 22 23 24 25 26 27 28 29 30 31 32 33 34 35 36 37 38 39 40 41 42 43 44 45 46 47 48 49 50
000
ASUS43 KIWX 251310
RWRIWX

KIWX WEATHER ROUNDUP
NATIONAL WEATHER SERVICE NORTHERN INDIANA
800 AM EST THU DEC 25 2014

NOTE: "FAIR" INDICATES FEW OR NO CLOUDS BELOW 12,000 FEET WITH NO
SIGNIFICANT WEATHER AND/OR OBSTRUCTIONS TO VISIBILITY.

* THESE STATIONS ARE NOT UNDER NWS QUALITY CONTROL. THEY ALSO MAY NOT
  REPORT WEATHER SUCH AS PRECIPITATION OR FOG.

INZ001>027-251400-
NORTHERN INDIANA

CITY           SKY/WX    TMP DP  RH WIND       PRES   REMARKS
GARY*          CLOUDY    36  27  69 W8        29.88R
VALPARAISO     CLOUDY    34  28  79 SW13      29.90R WCI  25
MICHIGAN CITY* CLOUDY    34  27  75 SW7       29.89R WCI  28
LAPORTE*       CLOUDY    36  31  85 SW10      29.89R
KNOX*          CLOUDY    34  28  79 SW12      29.90R WCI  25
SOUTH BEND     CLOUDY    36  29  75 W15       29.88
GOSHEN         CLOUDY    36  31  82 W14       29.87R
MONTICELLO*    CLOUDY    34  32  90 W8        29.93R WCI  28
LOGANSPORT*    CLOUDY    34  30  86 W12       29.94R WCI  25
ROCHESTER*     CLOUDY    36  32  87 W9G18     29.92R
WARSAW*        CLOUDY    34  32  93 W15G22    29.89R WCI  24
ANGOLA*        CLOUDY    36  32  87 W13       29.84R
FORT WAYNE     CLOUDY    36  32  85 W17       29.91R
HUNTINGTON*    CLOUDY    35  32  89 W13G21    29.92R WCI  26
PERU/GRISSOM   CLOUDY    34  34 100 W13       29.93R WCI  25
MARION*        CLOUDY    34  31  88 W12       29.95R WCI  25

$$
INZ028>050-251400-
CENTRAL INDIANA

CITY           SKY/WX    TMP DP  RH WIND       PRES   REMARKS
LAFAYETTE      CLOUDY    35  30  82 SW8       29.95R WCI  29
KOKOMO*        CLOUDY    36  28  75 W12       29.94R
MUNCIE*        CLOUDY    35  30  82 W15G21    29.94R WCI  25
INDIANAPOLIS   CLOUDY    34  29  82 W15       29.98R WCI  24

$$
MIZ043>046-050>051-056>058-064>065-071>073-077>080-251400-
SOUTHWEST LOWER MICHIGAN

CITY           SKY/WX    TMP DP  RH WIND       PRES   REMARKS
BATTLE CREEK   CLOUDY    37  31  78 W12       29.82R
BENTON HARBOR  CLOUDY    36  29  75 W15G25    29.85R
COLDWATER*     CLOUDY    35  33  93 MISG      29.83R
HILLSDALE*     CLOUDY    36  35  96 W12G18    29.81R
HOLLAND        CLOUDY    38  29  70 W16G26    29.81R
GRAND RAPIDS   CLOUDY    37  30  75 W13       29.79R
KALAMAZOO      CLOUDY    37  31  78 W12       29.83R
STURGIS*       CLOUDY    36  34  93 SW12      29.84R
THREE RIVERS*  CLOUDY    37  32  84 W13G20    29.85R

$$
OHZ001>008-015>018-024>025-251400-
NORTHWEST OHIO

CITY           SKY/WX    TMP DP  RH WIND       PRES   REMARKS
WAUSEON*       CLOUDY    37  34  87 W14G22    29.85R
DEFIANCE       CLOUDY    38  31  76 W7        29.88R
FINDLAY        CLOUDY    38  33  82 W17       29.88R
TOLEDO EXPRESS CLOUDY    37  32  82 W16       29.85R
TOLEDO METCALF CLOUDY    38  32  79 W17G25    29.86R
LIMA           LGT RAIN  37  33  85 W14       29.90R

$$
AND FOR LAKE MICHIGAN COASTAL AND OPEN LAKE BUOY OBSERVATIONS

STATION/POSITION TEMP    WIND        PRES    VSBY  WAVE
                 AIR SEA DIR/SP/G                  HT/PER
                 (F)     (DEG/KT/KT) (MB)    (MI)  (FT/S)
CALUMET HARBOR    35     230/  9/ 14 1010.4R
MICHIGAN CITY     35     220/ 24/ 28   N/A
SAINT JOSEPH      37     220/ 19/ 24 1011.9R

$$
&&



USA.gov is the U.S. government's official web portal to all federal, state and local government web resources and services.